Regional Weather Roundup
Issued by NWS State College, PA

Home | Current Version | Previous Version | Graphics & Text | Print | Product List | Glossary Off
Versions: 1 2 3 4 5 6 7 8 9 10 11 12 13 14 15 16 17 18 19 20 21 22 23 24 25 26 27 28 29 30 31 32 33 34 35 36 37 38 39 40 41 42 43 44 45 46 47 48 49 50

000
ASUS41 KCTP 101810
RWRCTP

REGIONAL WEATHER ROUNDUP
NATIONAL WEATHER SERVICE STATE COLLEGE PA
100 PM EST SAT DEC 10 2016

Note: "fair" indicates few or no clouds below 12,000 feet with no
significant weather and/or obstructions to visibility.

* = STATION THAT DOES NOT REPORT PRECIPITATION /E.G. RAIN...SNOW...ETC/
    THUNDER OR FOG.

PAZ002>004-007>009-013>016-020>023-029>032-101900-
WESTERN PENNSYLVANIA

CITY           SKY/WX    TMP DP  RH WIND       PRES   REMARKS
ERIE           CLOUDY    29  15  56 W16G23    30.38F
MEADVILLE      LGT SNOW  22  18  85 W12       30.36F VSB 3/4 WCI  10
FRANKLIN*        N/A     23  12  63 W13G18    30.37F WCI  11
NEW CASTLE     CLOUDY    28  14  55 W15       30.42F
BEAVER COUNTY  PTSUNNY   27  14  59 W12G20    30.41F
BUTLER*        PTSUNNY   27  12  54 W14       30.43F
PITTSBURGH INT FLURRIES  28  13  53 SW15G23   30.42F
PITTSBURGH     CLOUDY    25  12  58 W8G17     30.41F
INDIANA*       PTSUNNY   25  16  68 W15G23    30.41F HAZE    WCI  12
LATROBE        LGT SNOW  25  16  68 W14       30.43F WCI  13
WASHINGTON CO* CLOUDY    25  14  63 SW13G21   30.44F WCI  13
$$

PAZ004>006-010>012-017>019-024>028-033>037-041-042-045-046-049>053-101900-
CENTRAL PENNSYLVANIA

CITY           SKY/WX    TMP DP  RH WIND       PRES   REMARKS
BRADFORD       LGT SNOW  21  17  84 W12       30.26F FOG     WCI   9
DUBOIS         CLOUDY    23  15  71 W13G21    30.32F HAZE    WCI  11
CLEARFIELD     FLURRIES  25  16  68 W13G22    30.34F WCI  14
JOHNSTOWN      LGT SNOW  20  14  77 W14       30.31F WCI   7
ALTOONA        CLOUDY    25  16  68 W14       30.37F WCI  13
STATE COLLEGE  LGT SNOW  27  18  69 W12       30.35F
WILLIAMSPORT   CLOUDY    32  15  49 W13       30.35F
SELINSGROVE    CLOUDY    32  17  54 W8G21     30.39S
FT INDIANTOWN  CLOUDY    33  11  40 W13G23    30.37F
CAPITAL CITY   PTSUNNY   36  12  37 W12G20    30.40S
HARRISBURG     PTSUNNY   34  14  43 W13G22    30.39F
YORK           PTSUNNY   33  15  47 W15G22    30.40S
$$

PAZ038>040-043-044-047-048-054-055-060>062-067>071-101900-
EASTERN PENNSYLVANIA

CITY           SKY/WX    TMP DP  RH WIND       PRES   REMARKS
SCRANTON       CLOUDY    30  18  60 W10       30.29F
MOUNT POCONO   FLURRIES  23  14  68 W12G21    30.23F WCI  12
ALLENTOWN      CLOUDY    34  15  46 W9        30.35F
QUAKERTOWN*    PTCLDY    32  16  51 W8        30.35F
READING        PTSUNNY   35  14  42 NW17      30.36F
LANCASTER      CLOUDY    35  15  44 NW16      30.38F
COATESVILLE    CLEAR     34  14  44 W15       30.37F
POTTSTOWN      MOSUNNY   34  16  47 VRB6      30.38F
BLUE BELL      MOSUNNY   32  18  55 W6        30.36F
DOYLESTOWN     MOSUNNY   35  17  47 NW14G22   30.34F
WILLOW GROVE   NOT AVBL
NORTH PHILA    SUNNY     38  18  44 W12G22    30.38F
PHILADELPHIA   MOSUNNY   37  14  38 NW12G20   30.39F
$$




USA.gov is the U.S. government's official web portal to all federal, state and local government web resources and services.